This demonstration page uses our WeatherBlox Daily Observations layout. Learn more.

Left ArrowRight Arrow

Hourly Observations for May 18, 2019

Temp ( °F °C ) Dew Point ( °F °C ) Humidity (%) Winds ( mph kmh ) Pressure ( in mb ) Visibility ( mi km ) Precip ( " mm )
12:52 am 00:52 Cloudy 77 25 62 16.7 60 60 SSE 23 37 29.54 1000 10 16 0.00 0.00
1:52 am 01:52 Cloudy 76 24.4 62 16.7 62 62 SSE 21 33 29.52 1000 10 16 0.00 0.00
2:52 am 02:52 Mostly Cloudy 75 23.9 63 17.2 66 66 S 16 26 29.52 1000 10 16 0.00 0.00
3:52 am 03:52 Cloudy with Light Rain 73 22.8 60 15.6 64 64 SW 18 30 29.55 1001 10 16 0.00 0.03
4:52 am 04:52 Cloudy with Light Rain 68 20 61 16.1 78 78 SW 10 17 29.57 1001 9 14 0.03 0.76
5:52 am 05:52 Cloudy with Light Rain 66 18.9 62 16.7 87 87 ESE 8 13 29.56 1001 10 16 0.07 1.78
6:52 am 06:52 Cloudy 65 18.3 59 15 81 81 SSE 15 24 29.49 999 10 16 0.05 1.27
7:52 am 07:52 Mostly Cloudy 67 19.4 57 13.9 71 71 SE 13 20 29.47 998 10 16 0.00 0.00
8:49 am 08:49 Mostly Sunny 70 21 57 14 64 64 SSW 14 22 29.55 1001 10 16 0.00 0.00
8:52 am 08:52 Mostly Sunny 70 21.1 58 14.4 66 66 SW 13 20 29.54 1001 10 16 0.00 0.00
9:52 am 09:52 Partly Cloudy 74 23.3 57 13.9 56 56 SSW 14 22 29.52 1000 10 16 0.00 0.00
10:52 am 10:52 Partly Cloudy 76 24.4 57 13.9 52 52 S 23 37 29.55 1001 10 16 0.00 0.00
11:52 am 11:52 Cloudy 77 25 59 15 54 54 SSW 17 28 29.54 1000 10 16 0.00 0.00
12:52 pm 12:52 Cloudy 78 25.6 59 15 52 52 SW 16 26 29.54 1000 10 16 0.00 0.00
1:52 pm 13:52 Cloudy 76 24.4 61 16.1 60 60 SW 15 24 29.55 1001 10 16 0.00 0.00
2:52 pm 14:52 Cloudy 75 23.9 61 16.1 62 62 S 13 20 29.59 1002 10 16 0.00 0.00
3:52 pm 15:52 Cloudy with Light Rain 71 21.7 64 17.8 79 79 SSE 13 20 29.58 1002 10 16 0.00 0.03
4:03 pm 16:03 Cloudy with Thunderstorms 71 21.7 64 17.8 79 79 SE 16 26 29.57 1001 10 16 0.00 0.03
4:30 pm 16:30 Cloudy 69 20.6 64 17.8 84 84 SE 10 17 29.58 1002 10 16 0.00 0.03
4:39 pm 16:39 Cloudy 68 20 63 17.2 84 84 SSE 15 24 29.58 1002 10 16 0.00 0.03
4:52 pm 16:52 Cloudy 68 20 63 17.2 84 84 S 12 19 29.58 1002 10 16 0.00 0.03
5:52 pm 17:52 Cloudy with Light Rain 66 18.9 62 16.7 87 87 E 7 11 29.58 1002 7 11 0.03 0.76
5:59 pm 17:59 Cloudy with Light Rain 66 18.9 62 16.7 87 87 E 7 11 29.58 1002 6 10 0.02 0.51
6:52 pm 18:52 Cloudy with Light Rain 64 17.8 60 15.6 87 87 W 9 15 29.59 1002 5 8 0.12 3.05
7:52 pm 19:52 Cloudy with Light Rain 63 17.2 60 15.6 90 90 NNE 3 6 29.59 1002 9 14 0.07 1.78
8:52 pm 20:52 Cloudy 63 17.2 58 14.4 84 84 W 10 17 29.57 1001 10 16 0.00 0.03
9:52 pm 21:52 Cloudy 62 16.7 59 15 90 90 Calm 29.60 1003 10 16 0.00 0.00
10:52 pm 22:52 Cloudy 62 16.7 59 15 90 90 W 7 11 29.62 1003 10 16 0.00 0.00
11:52 pm 23:52 Cloudy 61 16.1 57 13.9 87 87 NW 10 17 29.59 1002 10 16 0.00 0.00

Powered by AerisWeather